Location: W�rzburg
(49.7529°N, 9.8822°E)
Time: 00:04:03
(UTC+01:00)

ISS - Pass Details

Date: 11 November 2017
Orbit: 401 x 407 km, 51.6° (Epoch: 18 November)

Event Time Altitude Azimuth Distance (km) Brightness Sun altitude
Exits shadow 06:42:56 10° 284° (WNW) 1,485 -1.7 -7.3°
Reaches altitude 10° 06:43:00 10° 284° (WNW) 1,458 -1.7 -7.3°
Maximum altitude 06:46:12 56° 206° (SSW) 486 -3.5 -6.8°
Drops below altitude 10° 06:49:24 10° 127° (SE) 1,452 0.5 -6.3°
Sets 06:51:29 0° 123° (ESE) 2,309 2.0 -6.0°
